{"data":{"norad_id":59406,"epoch":"2026-05-24T23:04:00.009408Z","epoch_age_seconds":89090,"freshness":"FRESH","line1":"1 59406U 24064J   26144.96111122  .00000029  00000+0  10591-4 0  9990","line2":"2 59406  43.0023 345.1619 0000989 255.4710 104.6032 15.27559239120891","mean_motion":15.27559239,"eccentricity":9.89e-5,"inclination_deg":43.0023,"raan_deg":345.1619,"arg_perigee_deg":255.471,"mean_anomaly_deg":104.6032,"bstar":1.0591e-5,"rev_number":12089,"period_min":94.268029889478,"perigee_km":482.43268519329,"apogee_km":483.78984009964,"semimajor_km":6861.2482626465,"source":"CELESTRAK","updated_at":"2026-05-25T13:38:18.940388Z"}}